Date,TemperatureHighF,TemperatureAvgF,TemperatureLowF,DewpointHighF,DewpointAvgF,DewpointLowF,HumidityHigh,HumidityAvg,HumidityLow,PressureMaxIn,PressureMinIn,WindSpeedMaxMPH,WindSpeedAvgMPH,GustSpeedMaxMPH,PrecipitationSumIn
2013-1-1,77,62,48,59,50,40,75,65,54,30.18,30.01,10,2,15,0.00
2013-1-2,80,66,53,62,54,45,75,65,53,30.05,29.95,10,2,12,0.00
2013-1-3,76,65,58,63,56,49,76,71,58,30.14,30.00,11,2,15,0.07
2013-1-4,62,58,55,52,49,47,77,73,69,30.25,30.11,12,6,18,0.01
2013-1-5,76,64,55,58,52,46,75,64,55,30.27,30.15,12,4,16,0.00
2013-1-6,79,68,63,62,58,53,75,69,54,30.18,30.03,12,2,15,0.29
2013-1-7,68,63,58,58,52,47,74,67,56,30.19,30.08,13,6,19,0.00
2013-1-8,83,71,61,64,58,52,75,65,53,30.20,30.10,11,4,18,0.00
2013-1-9,84,75,69,65,62,60,74,65,52,30.27,30.15,15,6,18,0.00
2013-1-10,82,73,65,64,60,54,75,64,53,30.27,30.18,20,6,25,0.00
2013-1-11,66,64,62,57,55,53,74,72,68,30.24,30.17,6,1,9,0.00
2013-1-12,80,75,62,62,59,54,75,59,53,30.17,30.06,13,5,18,0.00
2013-1-13,82,70,58,63,57,50,75,64,52,30.13,30.04,12,2,15,0.00
2013-1-14,81,69,58,63,57,50,75,65,54,30.17,30.08,16,3,19,0.00
2013-1-15,82,69,58,63,57,50,75,65,52,30.12,30.02,12,2,13,0.00
2013-1-16,82,69,60,62,56,50,75,64,48,30.08,29.97,7,1,11,0.00
2013-1-17,77,62,53,63,51,39,75,66,57,30.09,29.96,19,6,30,0.00
2013-1-18,65,53,39,51,41,28,72,63,56,30.27,30.09,18,7,24,0.02
2013-1-19,75,64,54,58,50,43,69,62,55,30.25,30.10,17,6,22,0.00
2013-1-20,75,64,59,57,52,49,74,65,54,30.15,30.01,9,4,15,0.00
2013-1-21,74,66,60,57,52,48,66,61,55,30.07,29.97,8,2,12,0.00
2013-1-22,67,57,44,48,41,33,64,55,34,30.25,30.04,14,4,20,0.00
2013-1-23,70,55,42,38,35,31,71,50,26,30.34,30.24,10,3,15,0.00
2013-1-24,74,54,40,51,41,31,74,62,43,30.29,30.20,13,2,14,0.00
2013-1-25,76,58,44,54,45,36,75,62,42,30.29,30.15,7,2,11,0.00
2013-1-26,76,59,43,56,46,35,74,63,48,30.25,30.13,11,1,14,0.00
2013-1-27,79,62,46,59,49,39,75,63,47,30.29,30.19,12,3,18,0.00
2013-1-28,79,68,60,60,56,51,75,65,53,30.31,30.19,13,4,18,0.00
2013-1-29,83,71,64,64,59,55,76,66,53,30.23,30.07,13,5,19,0.00
2013-1-30,84,72,64,65,59,55,74,63,52,30.09,29.89,17,6,26,0.00
2013-1-31,69,58,46,58,42,32,73,57,31,30.21,29.89,16,6,26,0.06
2013-2-1,70,53,41,37,32,28,62,48,21,30.34,30.20,12,4,20,0.00
2013-2-2,72,56,42,46,39,31,66,53,32,30.28,30.12,9,3,13,0.00
2013-2-3,50,11,0,100,39,0,71,36,35,30.17,30.04,12,4,18,0.02
2013-2-4,0,0,0,100,66,0,83,27,20,30.10,30.01,14,2,14,0.00
2013-2-5,158,0,0,100,77,0,80,47,24,30.06,29.95,8,1,13,0.00
2013-2-6,0,0,0,0,0,0,0,0,100,30.09,30.00,0,0,0,0.00
2013-2-7,0,0,0,0,0,0,0,0,100,30.05,29.83,0,0,0,0.00
2013-2-8,0,0,0,100,56,0,30,15,22,30.04,29.85,12,1,15,0.00
2013-2-9,158,0,0,100,42,0,28,12,28,30.17,30.02,12,4,15,0.00
2013-2-10,0,0,0,0,0,0,0,0,100,30.24,30.12,15,6,22,0.00
2013-2-11,0,0,0,0,0,0,0,0,100,30.18,30.04,14,3,18,0.00
2013-2-12,0,0,0,0,0,0,0,0,100,30.08,29.91,12,3,16,0.00
2013-2-13,0,0,0,0,0,0,0,0,100,29.95,29.82,19,7,27,0.16
2013-2-14,0,0,0,0,0,0,0,0,100,30.02,29.90,7,2,17,0.49
2013-2-15,0,0,0,0,0,0,0,0,100,30.06,29.93,9,3,13,0.05
2013-2-16,0,0,0,0,0,0,0,0,100,30.10,29.90,21,7,34,0.00
2013-2-17,0,0,0,0,0,0,0,0,100,30.32,30.11,16,6,22,0.00
2013-2-18,0,0,0,0,0,0,0,0,100,30.33,30.18,20,4,23,0.00
2013-2-19,0,0,0,0,0,0,0,0,100,30.19,30.04,12,3,21,0.00
2013-2-20,0,0,0,0,0,0,0,0,100,30.11,29.98,8,3,13,0.00
2013-2-21,0,0,0,0,0,0,0,0,100,30.08,29.96,13,3,14,0.00
2013-2-22,0,0,0,0,0,0,0,0,100,30.06,29.95,14,3,17,0.00
2013-2-23,86,48,0,71,41,0,95,42,48,29.99,29.85,15,4,21,0.02
2013-2-24,80,72,67,70,68,65,96,87,71,29.94,29.84,11,4,16,0.00
2013-2-25,86,74,65,71,66,63,98,77,47,29.89,29.74,17,3,18,0.00
2013-2-26,77,71,62,73,67,61,95,89,75,29.85,29.70,16,5,22,0.08
2013-2-27,76,65,56,61,56,50,98,77,45,29.95,29.84,12,3,17,0.00
2013-2-28,74,61,48,55,50,46,97,71,39,29.98,29.86,16,4,24,0.00
2013-3-1,64,55,48,49,42,38,90,63,39,29.99,29.89,15,5,21,0.00
2013-3-2,58,51,40,42,37,34,87,60,43,30.03,29.94,26,6,29,0.00
2013-3-3,54,45,36,38,33,30,90,65,47,30.14,29.97,16,6,28,0.00
2013-3-4,68,48,31,36,30,26,96,58,23,30.22,30.09,0,0,3,0.00
2013-3-5,77,68,58,58,52,46,92,59,38,30.07,30.00,18,5,18,0.00
2013-3-6,66,58,47,61,43,28,95,61,26,30.12,29.92,30,8,31,0.12
2013-3-7,70,52,38,42,37,32,85,59,29,30.20,30.09,13,3,13,0.00
2013-3-8,77,57,38,49,40,31,95,61,19,30.21,30.08,13,2,13,0.00
2013-3-9,75,61,42,52,47,41,96,65,32,30.20,30.10,22,4,22,0.00
2013-3-10,79,66,54,56,54,52,93,67,41,30.15,30.03,23,6,23,0.00
2013-3-11,79,67,54,60,57,52,96,72,50,30.08,29.88,25,4,25,0.00
2013-3-12,70,65,55,67,61,52,96,86,70,30.01,29.84,22,5,22,0.33
2013-3-13,76,61,48,52,43,32,94,58,21,30.15,30.00,20,6,20,0.00
2013-3-14,69,55,44,46,36,26,92,54,21,30.24,30.13,14,4,19,0.00
2013-3-15,74,54,36,48,38,31,97,61,26,30.27,30.12,16,2,16,0.00
2013-3-16,79,59,39,52,45,37,96,65,27,30.17,30.02,15,2,15,0.00
2013-3-17,79,63,46,58,53,45,97,73,44,30.12,29.97,15,2,15,0.00
2013-3-18,78,69,61,66,62,57,90,80,65,30.02,29.84,23,3,23,0.00
2013-3-19,85,72,61,66,63,60,97,76,45,29.98,29.85,11,2,13,0.00
2013-3-20,74,68,59,67,62,56,94,83,60,29.94,29.77,24,4,25,0.02
2013-3-21,71,59,46,58,41,26,95,58,21,29.96,29.84,16,4,16,0.00
2013-3-22,80,59,40,66,50,37,96,76,37,29.99,29.86,16,3,16,0.66
2013-3-23,86,73,62,75,67,61,98,84,54,29.96,29.75,26,4,26,0.05
2013-3-24,82,75,70,74,70,66,94,86,72,29.82,29.61,35,7,35,0.07
2013-3-25,70,64,52,67,46,27,94,58,23,30.01,29.71,27,8,27,0.00
2013-3-26,59,52,44,44,33,26,72,50,31,30.22,30.01,31,9,31,0.00
2013-3-27,64,50,37,38,34,29,83,58,27,30.29,30.17,17,5,17,0.00
2013-3-28,73,54,36,44,35,29,95,56,21,30.28,30.15,15,3,15,0.00
2013-3-29,76,58,40,51,39,31,100,58,21,30.31,30.16,20,2,20,0.00
2013-3-30,79,61,44,55,48,42,96,66,36,30.23,30.08,15,2,15,0.00
2013-3-31,82,67,54,59,54,48,91,66,36,30.15,29.97,17,3,17,0.00
2013-4-1,82,71,60,69,62,58,95,76,53,30.01,29.91,26,4,26,0.12
2013-4-2,86,71,57,66,59,49,98,71,30,30.06,29.97,20,2,20,0.00
2013-4-3,86,73,63,68,64,58,95,74,43,30.05,29.91,22,4,22,0.03
2013-4-4,71,68,66,68,66,63,96,92,79,30.01,29.83,19,5,20,0.28
2013-4-5,75,68,60,69,62,55,96,82,53,29.95,29.79,17,5,20,0.03
2013-4-6,79,66,53,59,56,52,94,73,45,30.09,29.95,18,6,20,0.00
2013-4-7,83,70,58,63,58,51,96,70,38,30.13,30.02,17,4,17,0.00
2013-4-8,85,72,59,64,59,52,97,66,35,30.11,30.01,17,4,18,0.00
2013-4-9,83,72,59,69,62,57,97,73,48,30.14,30.04,21,5,21,0.00
2013-4-10,89,74,58,70,63,56,97,72,42,30.10,29.92,20,4,20,0.00
2013-4-11,90,78,71,72,70,68,94,77,52,29.97,29.79,23,7,23,0.01
2013-4-12,83,76,72,74,71,69,94,84,69,29.87,29.75,28,5,28,0.00
2013-4-13,86,76,67,70,68,63,96,77,51,29.95,29.84,16,2,16,0.00
2013-4-14,89,77,67,75,68,60,87,76,57,29.97,29.80,34,6,34,0.01
2013-4-15,91,77,63,72,65,60,90,69,45,30.04,29.90,16,3,16,0.00
2013-4-16,90,78,69,73,68,66,93,73,49,30.12,30.00,23,5,23,0.00
2013-4-17,84,72,65,69,65,63,97,81,51,30.11,30.00,19,4,19,0.00
2013-4-18,89,77,65,71,67,63,97,73,46,30.03,29.91,19,4,19,0.34
2013-4-19,89,78,70,74,70,66,97,78,51,29.99,29.88,18,4,18,0.02
2013-4-20,76,69,62,72,64,57,95,85,70,30.12,29.93,21,5,21,0.00
2013-4-21,80,69,59,71,65,57,96,87,69,30.12,29.98,17,4,17,0.22
2013-4-22,80,71,66,70,67,63,98,88,66,30.05,29.94,24,5,24,0.08
2013-4-23,83,72,65,66,62,58,93,74,48,30.08,29.98,20,7,20,0.00
2013-4-24,87,73,58,65,60,55,97,67,36,30.12,30.03,17,3,17,0.00
2013-4-25,88,74,60,68,61,56,97,68,36,30.18,30.07,13,2,13,0.00
2013-4-26,88,75,61,66,62,59,95,68,40,30.21,30.11,22,3,22,0.00
2013-4-27,85,75,66,69,65,61,97,75,48,30.19,30.06,21,5,21,0.00
2013-4-28,87,75,63,66,62,57,95,67,38,30.10,29.94,22,5,22,0.00
2013-5-1,68,68,68,67,67,66,96,96,96,29.94,29.93,7,2,7,0.03
2013-5-2,78,72,65,72,69,64,97,89,80,29.92,29.79,15,3,15,0.20
2013-5-3,84,71,65,73,67,64,98,89,58,29.82,29.68,22,3,22,0.74
2013-5-4,83,72,67,70,67,65,97,84,58,29.79,29.64,23,5,23,0.00
2013-5-5,78,68,58,66,55,45,94,65,34,29.93,29.75,24,6,24,0.00
2013-5-6,78,66,57,61,56,52,96,72,45,29.99,29.88,21,4,21,0.00
2013-5-7,80,66,51,62,56,49,97,73,44,30.04,29.95,21,3,21,0.00
2013-5-8,79,66,56,64,58,54,97,78,48,30.11,30.00,16,2,16,0.00
2013-5-9,86,72,55,66,59,54,97,69,38,30.13,30.04,12,2,12,0.00
2013-5-10,91,78,62,73,66,60,97,71,39,30.12,29.96,18,3,18,0.00
2013-5-11,89,76,66,76,69,65,97,79,54,30.04,29.94,24,3,24,0.15
2013-5-12,71,68,67,70,66,65,96,94,91,30.01,29.91,8,0,8,0.00
2013-5-13,84,76,62,67,58,47,92,57,35,30.11,30.02,19,5,19,0.00
2013-5-14,84,70,53,60,53,46,96,61,30,30.19,30.08,19,3,19,0.00
2013-5-15,86,71,56,65,58,54,97,68,38,30.20,30.06,16,3,16,0.00
2013-5-16,87,74,61,65,61,51,95,66,30,30.11,29.98,20,4,20,0.00
2013-5-17,89,76,62,68,63,56,95,66,34,30.08,30.00,19,3,19,0.00
2013-5-18,93,79,69,73,67,58,95,70,33,30.09,29.96,18,3,18,0.00
2013-5-19,92,79,70,73,70,64,94,74,41,30.07,29.95,20,4,20,0.00
2013-5-20,90,76,66,74,69,64,96,80,45,30.06,29.94,29,3,29,0.45
2013-5-21,86,73,66,74,69,64,98,89,58,30.02,29.92,29,2,29,0.84
2013-5-22,88,75,66,75,70,65,98,86,56,29.95,29.87,20,2,20,0.00
2013-5-23,91,78,67,75,70,65,98,79,50,29.99,29.90,22,2,22,0.00
2013-5-24,94,78,66,76,66,54,97,72,28,30.06,29.95,23,3,23,0.00
2013-5-25,88,78,71,70,65,61,92,67,44,30.16,30.04,20,6,20,0.00
2013-5-26,87,73,59,65,60,52,96,66,32,30.20,30.09,18,4,18,0.00
2013-5-27,88,74,60,67,63,58,97,69,43,30.16,30.05,19,5,19,0.00
2013-5-28,88,76,68,73,70,66,95,81,54,30.12,30.03,24,6,24,0.02
2013-5-29,84,75,71,76,71,69,96,87,67,30.11,30.03,24,6,24,0.28
2013-5-30,84,77,72,75,71,68,95,82,65,30.09,30.00,30,8,30,0.34
2013-5-31,88,78,72,75,70,68,88,77,60,30.07,29.99,24,7,24,0.01
2013-6-1,90,78,73,77,73,70,96,84,61,30.04,29.92,24,5,24,0.22
2013-6-2,92,79,72,78,74,71,98,85,54,30.00,29.86,19,2,19,0.08
2013-6-3,86,78,73,77,74,71,98,88,68,29.99,29.89,17,2,17,0.01
2013-6-4,86,77,71,75,72,70,97,86,64,30.01,29.93,16,3,16,1.62
2013-6-5,81,75,72,77,73,71,98,94,78,30.00,29.89,17,3,17,0.14
2013-6-6,78,75,73,76,73,71,98,95,88,29.90,29.67,31,8,31,2.13
2013-6-7,87,78,71,78,73,70,98,85,64,29.94,29.77,15,3,17,0.00
2013-6-8,90,76,71,77,73,70,98,89,61,30.09,29.94,25,2,25,0.81
2013-6-9,91,80,70,78,73,69,98,82,55,30.09,29.99,18,4,18,0.01
2013-6-10,91,79,71,79,74,67,97,84,56,30.08,29.97,28,2,28,0.94
2013-6-11,90,78,71,80,73,70,98,88,60,30.07,29.97,18,2,19,0.03
2013-6-12,95,79,69,77,72,67,98,81,45,30.07,29.98,16,1,16,0.12
2013-6-13,92,80,70,79,73,69,97,81,55,30.03,29.89,24,2,24,0.00
2013-6-14,90,81,72,76,73,70,96,78,54,29.94,29.84,20,3,20,0.00
2013-6-15,90,80,73,80,75,71,96,86,68,30.05,29.90,22,2,22,0.59
2013-6-16,93,83,76,78,75,72,96,78,50,30.07,29.97,12,4,14,1.22
2013-6-17,95,81,74,80,75,71,97,83,51,30.07,29.95,18,2,18,0.23
2013-6-18,94,81,72,78,74,70,96,80,54,30.07,29.94,19,2,19,0.00
2013-6-19,91,81,72,79,74,71,95,79,57,30.03,29.95,18,3,18,0.00
2013-6-20,94,79,72,78,72,67,95,79,51,30.07,29.98,21,2,21,0.00
2013-6-21,92,76,69,76,71,67,96,86,53,30.10,30.02,18,2,18,0.62
2013-6-22,93,79,70,77,72,64,96,79,40,30.10,30.01,17,2,17,0.00
2013-6-23,92,79,71,77,73,69,95,84,51,30.13,30.04,21,2,21,0.10
2013-6-24,92,82,74,76,73,68,94,75,48,30.17,30.05,19,4,19,0.00
2013-6-25,93,83,73,76,72,68,95,73,49,30.14,30.00,18,4,18,0.00
2013-6-26,94,80,71,78,73,69,95,82,53,30.07,29.98,30,3,30,0.12
2013-6-27,93,80,69,77,72,68,96,78,49,30.05,29.91,11,2,11,0.01
2013-6-28,91,78,71,78,73,68,95,85,59,29.97,29.84,28,2,28,0.92
2013-6-29,88,77,72,80,74,70,95,91,67,29.87,29.79,34,2,34,0.87
2013-6-30,88,76,73,80,73,71,95,91,72,29.88,29.80,24,4,24,0.31
2013-7-1,80,74,71,77,72,69,95,92,85,30.01,29.85,21,4,21,0.50
2013-7-2,83,75,72,76,72,71,95,92,75,30.09,29.96,23,2,23,0.12
2013-7-3,90,77,72,79,73,70,95,89,64,30.12,30.03,27,3,27,0.40
2013-7-4,88,77,71,79,73,69,94,87,66,30.14,30.06,23,4,23,0.28
2013-7-5,90,78,72,78,73,70,95,87,61,30.15,30.05,30,4,30,0.54
2013-7-6,92,81,74,77,73,70,93,79,52,30.11,30.01,19,5,19,0.02
2013-7-7,90,82,74,78,74,71,93,77,56,30.12,30.01,20,5,20,0.01
2013-7-8,91,82,74,76,73,70,93,75,52,30.14,30.05,16,4,16,0.00
2013-7-9,92,81,71,76,72,68,94,76,47,30.15,30.04,19,3,19,0.00
2013-7-10,92,80,71,76,72,69,94,78,50,30.08,29.94,19,2,19,0.00
2013-7-11,90,79,72,77,73,70,93,81,55,30.03,29.91,21,3,21,0.34
2013-7-12,89,77,72,79,73,70,94,88,64,29.95,29.88,17,1,17,0.23
2013-7-13,89,77,71,76,72,68,94,86,61,29.98,29.90,21,2,21,0.26
2013-7-14,86,75,72,78,72,69,94,90,75,30.07,29.95,17,3,17,0.40
2013-7-15,88,78,69,76,72,67,94,83,59,30.10,30.01,16,3,16,0.01
2013-7-16,88,76,72,78,72,69,93,88,65,30.16,30.07,24,4,24,0.96
2013-7-17,88,78,73,77,73,69,93,85,62,30.15,30.06,29,4,29,0.02
2013-7-18,89,78,70,78,72,68,93,83,63,30.11,30.02,15,3,15,0.30
2013-7-19,91,76,70,77,72,68,93,86,59,30.12,30.02,17,2,22,1.45
2013-7-20,92,77,71,80,73,69,93,87,61,30.10,30.00,27,2,27,0.15
2013-7-21,92,79,71,81,74,69,93,85,64,30.12,30.01,17,2,17,0.00
2013-7-22,91,78,73,79,73,70,92,86,61,30.12,30.05,22,2,22,0.38
2013-7-23,88,77,72,79,73,70,93,89,68,30.09,29.95,20,2,20,0.12
2013-7-24,88,79,74,80,75,72,93,87,70,30.00,29.88,16,3,32,0.35
2013-7-25,87,78,72,81,74,70,94,88,71,30.00,29.87,19,2,19,0.43
2013-7-26,92,81,73,80,74,71,94,82,57,30.00,29.93,18,2,18,0.02
2013-7-27,92,82,73,80,74,71,94,80,55,29.99,29.88,15,2,15,0.01
2013-7-28,92,79,72,78,73,70,94,83,55,30.06,29.93,13,1,13,0.01
2013-7-29,95,80,70,78,72,68,94,78,46,30.14,30.01,25,2,25,0.00
2013-7-30,95,82,72,79,74,70,94,77,47,30.16,30.06,19,2,19,0.00
2013-7-31,96,81,73,78,74,70,93,81,47,30.12,29.99,18,2,18,0.16
2013-8-1,95,81,72,78,73,69,94,79,44,30.05,29.92,18,2,18,0.02
2013-8-2,95,80,72,78,73,70,94,81,50,30.03,29.93,17,2,17,0.23
2013-8-3,92,78,73,79,74,70,94,88,62,30.09,30.00,24,2,24,1.46
2013-8-4,89,79,73,82,75,70,94,88,69,30.09,29.98,21,2,30,0.28
2013-8-5,92,82,74,80,76,72,94,82,61,30.02,29.91,19,2,20,0.01
2013-8-6,94,82,74,80,75,72,94,82,54,29.97,29.88,19,2,19,0.07
2013-8-7,94,82,76,79,75,73,94,81,57,29.96,29.88,20,2,20,0.01
2013-8-8,95,83,76,78,75,71,93,77,51,30.02,29.92,22,3,22,0.01
2013-8-9,92,81,75,79,74,70,93,82,60,30.05,29.96,24,3,24,0.03
2013-8-10,94,83,71,79,73,66,94,74,41,30.11,30.02,18,4,18,0.00
2013-8-11,96,84,72,78,73,68,94,73,46,30.14,30.04,14,3,15,0.00
2013-8-12,94,83,73,78,73,69,95,74,47,30.12,29.99,12,2,21,0.00
2013-8-13,96,84,73,78,74,70,95,75,45,30.04,29.90,12,2,12,0.00
2013-8-14,94,82,75,80,75,72,95,83,53,30.02,29.90,18,2,18,0.00
2013-8-15,93,82,72,79,75,70,96,81,58,30.03,29.92,15,2,15,0.00
2013-8-16,94,83,76,80,76,72,95,80,53,30.05,29.94,13,2,13,0.05
2013-8-17,94,80,74,80,76,72,96,86,55,30.07,29.96,21,2,21,0.61
2013-8-18,91,78,74,80,75,70,96,90,66,30.10,30.00,27,3,27,0.53
2013-8-19,92,80,73,81,75,72,96,85,59,30.09,29.96,15,2,15,0.01
2013-8-20,94,80,73,79,74,70,96,85,54,30.08,29.97,27,3,27,0.05
2013-8-21,92,80,71,79,75,68,96,87,57,30.10,30.01,33,5,33,0.69
2013-8-22,91,79,74,80,75,72,96,89,62,30.08,29.98,24,3,24,0.30
2013-8-23,93,81,75,80,76,73,96,86,54,30.01,29.93,21,2,21,0.09
2013-8-24,92,79,73,80,75,72,96,87,56,30.10,29.99,33,3,33,0.03
2013-8-25,90,80,74,78,75,72,96,86,65,30.14,30.06,20,3,20,0.00
2013-8-26,89,79,74,79,75,72,96,88,64,30.12,29.99,19,3,19,0.46
2013-8-27,90,80,71,77,72,68,96,78,51,30.06,29.96,19,4,19,0.00
2013-8-28,92,79,70,75,70,66,96,76,44,30.05,29.96,18,3,18,0.00
2013-8-29,94,81,71,76,72,68,96,77,46,30.03,29.91,12,1,12,0.00
2013-8-30,94,81,72,78,74,69,96,81,50,29.98,29.88,17,2,17,0.00
2013-8-31,92,81,71,79,73,69,96,79,51,29.97,29.88,15,3,15,0.01
2013-9-1,94,80,71,78,73,69,95,80,51,29.99,29.88,15,2,15,0.00
2013-9-2,91,77,70,78,73,69,96,88,61,30.01,29.92,24,2,24,0.22
2013-9-3,89,78,71,80,74,70,96,89,71,30.01,29.92,13,1,13,0.15
2013-9-4,94,78,72,80,73,70,96,87,55,30.08,29.96,31,2,31,0.96
2013-9-5,94,79,71,81,74,69,97,85,51,30.09,29.98,11,2,11,0.53
2013-9-6,94,78,72,80,73,70,97,87,50,30.05,29.92,30,2,30,0.13
2013-9-7,92,77,71,78,73,70,97,87,55,30.02,29.90,23,2,23,0.04
2013-9-8,92,78,71,77,72,69,96,83,48,29.97,29.84,17,2,17,0.00
2013-9-9,91,80,72,77,72,67,96,80,50,30.02,29.92,16,4,16,0.00
2013-9-10,90,81,74,76,72,66,95,77,47,30.08,29.98,21,5,21,0.00
2013-9-11,90,81,74,75,73,69,94,77,52,30.07,29.97,20,5,20,0.00
2013-9-12,91,78,72,78,73,70,96,88,57,30.02,29.89,14,1,14,0.04
2013-9-13,92,78,70,78,72,69,97,83,53,29.90,29.78,16,1,16,0.00
2013-9-14,94,80,71,78,73,70,96,80,50,29.97,29.82,19,1,19,0.00
2013-9-15,92,78,72,79,73,70,96,88,58,30.07,29.96,30,3,30,0.09
2013-9-16,91,77,71,79,73,69,97,88,57,30.07,29.98,26,3,26,0.11
2013-9-17,89,78,70,78,73,69,97,87,63,30.05,29.94,18,3,21,0.20
2013-9-18,87,78,72,78,74,70,97,89,70,30.03,29.95,26,5,27,0.45
2013-9-19,89,79,72,77,73,70,96,82,58,30.04,29.95,16,5,16,0.01
2013-9-20,89,78,69,73,70,66,97,76,51,30.02,29.89,12,3,17,0.00
2013-9-21,91,78,67,75,70,66,97,78,49,29.94,29.75,11,1,11,0.00
2013-9-22,90,79,72,78,74,70,95,85,62,29.85,29.75,13,2,19,0.00
2013-9-23,84,76,72,78,74,70,97,94,80,29.96,29.83,13,2,13,0.65
2013-9-24,82,76,74,77,74,72,97,94,81,29.96,29.85,13,3,13,0.09
2013-9-25,81,75,71,74,72,70,97,93,76,29.90,29.79,17,3,17,0.19
2013-9-26,90,80,74,79,73,62,97,82,46,29.87,29.78,22,4,22,0.09
2013-9-27,84,75,70,76,71,68,96,86,70,29.96,29.85,18,5,18,0.00
2013-9-28,86,76,70,76,72,69,97,85,67,29.99,29.91,18,4,18,0.04
2013-9-29,88,78,68,75,69,66,96,77,50,29.99,29.88,16,3,16,0.00
2013-9-30,90,77,66,75,69,64,97,78,47,30.00,29.90,12,2,12,0.00
2013-10-1,91,79,69,75,71,66,97,78,51,30.05,29.95,16,4,18,0.00
2013-10-2,88,79,70,74,71,68,95,78,56,30.05,29.96,16,4,16,0.00
2013-10-3,89,79,69,74,71,68,96,77,51,30.07,29.97,10,3,13,0.00
2013-10-4,90,79,70,76,71,68,97,80,51,30.08,29.97,14,2,14,0.00
2013-10-5,89,78,68,76,70,66,97,79,54,30.05,29.93,18,3,18,0.00
2013-10-6,92,80,69,76,71,68,97,78,47,29.98,29.84,13,2,13,0.00
2013-10-7,87,76,71,79,73,69,97,91,74,29.87,29.73,30,3,30,0.77
2013-10-8,88,77,72,78,74,71,98,90,62,29.94,29.78,19,4,19,0.49
2013-10-9,82,74,68,73,69,66,93,86,70,30.03,29.92,11,5,16,0.00
2013-10-10,86,74,64,71,67,63,97,79,53,30.05,29.95,13,3,13,0.01
2013-10-11,87,74,62,72,65,60,98,76,48,30.04,29.93,10,1,10,0.00
2013-10-12,86,73,61,70,64,60,97,75,43,30.04,29.95,18,2,18,0.00
2013-10-13,86,74,61,71,63,58,98,72,42,30.07,29.97,12,2,12,0.00
2013-10-15,80,73,68,72,70,67,97,88,74,29.98,29.89,11,2,11,0.00
2013-10-16,86,76,68,73,69,66,97,83,54,29.96,29.88,9,1,9,0.00
2013-10-17,89,76,65,75,69,64,97,79,49,29.97,29.87,10,1,10,0.00
2013-10-18,91,79,68,75,70,67,98,78,48,29.98,29.88,12,2,12,0.00
2013-10-19,89,78,69,75,72,68,97,81,54,29.95,29.85,11,2,11,0.00
2013-10-20,89,79,72,76,73,71,97,84,62,29.96,29.85,15,2,15,0.02
2013-10-21,83,75,70,77,72,69,97,91,72,29.99,29.90,9,1,9,0.01
2013-10-22,90,78,70,76,73,69,97,86,62,29.94,29.80,20,3,20,0.09
2013-10-23,82,73,66,72,65,54,97,79,45,30.01,29.80,20,4,20,0.04
2013-10-24,72,65,59,59,55,50,93,71,58,30.16,30.00,16,4,16,0.00
2013-10-25,81,67,56,63,56,52,96,72,38,30.23,30.12,15,4,15,0.00
2013-10-26,80,67,57,60,55,45,92,70,33,30.19,30.07,12,3,12,0.00
2013-10-27,79,65,51,62,55,50,97,73,39,30.12,30.03,12,2,13,0.00
2013-10-28,84,68,53,67,59,51,97,74,46,30.18,30.08,12,2,12,0.00
2013-10-29,85,72,61,69,64,60,97,77,50,30.21,30.10,19,4,19,0.00
2013-10-30,85,73,64,71,66,63,96,79,55,30.21,30.08,16,3,16,0.00
2013-10-31,86,73,62,70,65,60,98,77,49,30.12,29.96,18,2,18,0.00
2013-11-1,87,76,67,73,69,66,97,80,52,30.00,29.85,18,3,18,0.00
2013-11-2,76,70,62,74,68,61,97,93,83,29.96,29.81,19,3,19,0.12
2013-11-3,76,65,56,62,54,44,97,71,32,30.10,29.95,16,5,18,0.01
2013-11-4,80,69,58,65,60,54,94,75,51,30.16,30.08,25,7,25,0.02
2013-11-5,82,72,65,70,67,63,95,83,61,30.13,30.04,24,7,24,0.00
2013-11-6,84,74,66,70,67,64,94,81,56,30.09,30.00,15,4,15,0.00
2013-11-7,81,71,64,71,67,62,98,87,66,30.05,29.95,12,2,12,0.00
2013-11-8,79,69,64,66,63,59,97,83,62,30.11,29.98,20,6,20,0.01
2013-11-9,81,71,63,68,63,60,90,77,59,30.16,30.08,20,6,20,0.00
2013-11-10,84,72,63,69,64,61,95,78,53,30.16,30.05,15,4,15,0.00
2013-11-11,82,72,64,69,65,63,95,80,55,30.15,30.04,11,4,13,0.00
2013-11-12,79,70,62,70,65,60,97,85,64,30.10,29.98,16,2,16,0.00
2013-11-13,68,61,54,63,53,49,87,75,62,30.29,30.06,30,9,30,0.00
2013-11-14,77,63,50,59,54,48,95,76,48,30.29,30.16,22,5,22,0.00
2013-11-15,76,68,58,66,62,56,93,83,61,30.17,30.05,13,3,13,0.02
2013-11-16,74,70,67,72,68,64,96,93,86,30.12,30.01,12,3,12,0.12
2013-11-17,84,75,68,74,70,65,96,84,64,30.08,29.98,14,2,14,0.01
2013-11-18,84,74,65,73,69,64,98,86,67,30.02,29.90,14,2,14,0.00
2013-11-19,79,72,64,71,67,61,96,85,68,29.97,29.88,13,3,13,0.00
2013-11-20,82,71,63,72,67,61,96,88,69,30.09,29.96,19,5,19,0.01
2013-11-21,82,73,70,73,70,68,95,89,67,30.17,30.07,18,5,18,0.00
2013-11-22,82,74,68,72,68,64,95,84,67,30.18,30.08,16,4,16,0.00
2013-11-23,84,71,60,70,64,59,98,81,51,30.11,29.98,8,2,11,0.00
2013-11-24,71,64,60,64,59,54,96,84,72,30.21,30.01,24,7,24,0.00
2013-11-25,74,68,61,63,58,55,87,73,56,30.22,30.05,21,7,21,0.00
2013-11-26,82,73,67,73,69,63,97,87,71,30.05,29.74,21,6,22,0.24
2013-11-27,73,63,43,72,59,37,97,85,67,30.20,29.71,29,8,29,0.29
2013-11-28,65,50,36,52,44,32,92,78,61,30.33,30.20,21,6,21,0.00
2013-11-29,73,60,52,59,54,49,94,81,60,30.34,30.24,20,7,20,0.00
2013-11-30,76,64,55,65,59,52,95,85,66,30.30,30.15,20,6,20,0.00
2013-12-1,73,66,61,66,63,60,97,91,77,30.17,29.96,15,4,15,0.00
2013-12-2,70,64,60,62,59,55,98,85,65,29.96,29.83,13,2,13,0.00
2013-12-3,78,66,54,65,60,52,97,83,59,29.98,29.87,12,2,12,0.02
2013-12-4,81,69,59,71,64,58,98,86,62,30.08,29.96,7,1,11,0.00
2013-12-5,82,71,60,70,65,58,98,83,59,30.17,30.06,15,2,15,0.00
2013-12-6,86,73,61,73,67,60,98,83,58,30.17,30.06,18,2,18,0.01
2013-12-7,82,71,60,70,64,59,98,81,53,30.23,30.12,11,1,11,0.00
2013-12-8,83,72,60,72,66,59,99,83,55,30.22,30.08,15,2,15,0.00
2013-12-9,83,71,62,72,66,61,98,84,62,30.18,30.07,9,1,16,0.00
2013-12-10,84,71,58,72,64,57,98,80,50,30.16,30.05,17,2,17,0.00
2013-12-11,82,71,60,70,64,56,92,79,61,30.24,30.13,14,4,14,0.00
2013-12-12,70,63,52,64,53,32,96,73,37,30.30,30.17,18,6,18,0.00
2013-12-13,75,61,48,59,53,43,95,76,56,30.26,30.10,18,4,18,0.00
2013-12-14,82,72,61,71,66,58,94,82,65,30.10,29.92,14,4,20,0.00
2013-12-15,72,68,58,71,64,55,97,87,72,30.11,29.88,21,4,21,0.26
2013-12-16,65,56,46,55,48,42,92,76,52,30.22,30.09,13,5,13,0.01
2013-12-17,71,56,43,56,49,42,96,79,55,30.24,30.12,12,3,12,0.00
2013-12-18,70,55,43,49,44,40,94,71,40,30.27,30.19,17,3,17,0.00
2013-12-19,75,59,40,59,50,38,97,77,43,30.27,30.15,13,2,13,0.00
2013-12-20,82,67,52,66,60,50,98,79,57,30.19,30.07,16,3,16,0.00
2013-12-21,85,74,66,72,67,63,96,81,59,30.12,30.00,21,5,21,0.00
2013-12-22,84,75,68,73,69,66,97,84,64,30.13,30.04,15,4,20,0.01
2013-12-23,85,73,64,74,69,63,98,86,61,30.16,30.06,16,2,16,0.00
2013-12-24,72,64,51,71,55,38,96,74,38,30.25,30.08,26,6,26,0.01
2013-12-25,76,60,46,60,51,41,89,72,54,30.23,30.12,14,5,22,0.00
2013-12-26,70,61,57,63,58,55,97,90,74,30.20,30.13,16,4,16,0.00
2013-12-27,71,65,59,66,62,57,94,89,81,30.24,30.13,16,5,16,0.00
2013-12-28,79,71,65,70,67,63,97,87,70,30.21,30.00,18,5,18,0.00
2013-12-29,77,70,61,74,69,60,97,94,88,30.00,29.87,22,4,22,0.37
2013-12-30,63,60,57,60,58,55,98,95,89,30.19,29.99,12,2,12,0.02
2013-12-31,68,62,57,56,53,50,94,75,55,30.29,30.16,15,4,15,0.00
2014-1-1,65,61,58,64,59,53,97,93,77,30.24,30.04,17,5,17,0.13
2014-1-2,82,69,61,73,66,59,99,92,66,30.04,29.81,28,5,28,0.38